| time (UTC) | temp F | wind direction | speed MPH | gust MPH | rain 1hr in | rain 24hr in | rain mn in | humidity % | barometer mb |
| 20260503044016 | 76 | 0.0 | 0.0 | 0.00 | 0.00 | 0.00 | 80 | 988.3 | |
| 20260503043036 | 76 | 0.0 | 0.0 | 0.00 | 0.00 | 0.00 | 80 | 988.3 | |
| 20260503042015 | 76 | 0.0 | 0.0 | 0.00 | 0.00 | 0.00 | 80 | 988.5 | |
| 20260503041016 | 76 | 0.0 | 0.0 | 0.00 | 0.00 | 0.00 | 79 | 988.5 | |
| 20260503040018 | 76 | 0.0 | 0.0 | 0.00 | 0.00 | 0.00 | 79 | 988.5 | |
| 20260503035017 | 76 | 0.0 | 0.0 | 0.00 | 0.00 | 0.00 | 79 | 988.5 | |
| 20260503034017 | 77 | 0.0 | 0.0 | 0.00 | 0.00 | 0.00 | 79 | 988.5 | |
| 20260503033016 | 77 | 0.0 | 0.0 | 0.00 | 0.00 | 0.00 | 78 | 988.5 | |
| 20260503032057 | 77 | 0.0 | 0.0 | 0.00 | 0.00 | 0.00 | 78 | 988.4 | |
| 20260503031017 | 77 | 0.0 | 0.0 | 0.00 | 0.00 | 0.00 | 77 | 988.2 | |
| 20260503030017 | 77 | 0.0 | 0.0 | 0.00 | 0.00 | 0.00 | 77 | 988.2 | |
| 20260503025017 | 78 | 0.0 | 0.0 | 0.00 | 0.00 | 0.00 | 76 | 988.4 | |
| 20260503024017 | 78 | 0.0 | 0.0 | 0.00 | 0.00 | 0.00 | 75 | 988.3 | |
| 20260503023037 | 78 | 0.0 | 0.0 | 0.00 | 0.00 | 0.00 | 75 | 988.3 | |
| 20260503022016 | 78 | 0.0 | 0.0 | 0.00 | 0.00 | 0.00 | 75 | 988.1 | |
| 20260503021056 | 78 | 0.0 | 0.0 | 0.00 | 0.00 | 0.00 | 75 | 987.8 | |
| 20260503020016 | 78 | 0.0 | 0.0 | 0.00 | 0.00 | 0.00 | 75 | 987.8 | |
| 20260503015016 | 78 | 0.0 | 0.0 | 0.00 | 0.00 | 0.00 | 75 | 987.6 | |
| 20260503014016 | 78 | 0.0 | 0.0 | 0.00 | 0.00 | 0.00 | 75 | 987.5 | |
| 20260503013016 | 79 | 0.0 | 0.0 | 0.00 | 0.00 | 0.00 | 75 | 987.5 | |
| 20260503012016 | 79 | 0.0 | 0.0 | 0.00 | 0.00 | 0.00 | 75 | 987.2 | |
| 20260503011016 | 79 | 0.0 | 0.0 | 0.00 | 0.00 | 0.00 | 74 | 987.0 | |
| 20260503010016 | 79 | 0.0 | 0.0 | 0.00 | 0.00 | 0.00 | 74 | 987.0 | |
| 20260503005016 | 79 | 0.0 | 0.0 | 0.00 | 0.00 | 0.00 | 74 | 987.0 | |
| 20260503004016 | 80 | 0.0 | 0.0 | 0.00 | 0.00 | 0.00 | 73 | 986.7 | |
| 20260503003016 | 80 | 0.0 | 0.0 | 0.00 | 0.00 | 0.00 | 73 | 986.7 | |
| 20260503002016 | 80 | 0.0 | 0.0 | 0.00 | 0.00 | 0.00 | 73 | 986.4 | |
| 20260503001016 | 80 | 0.0 | 0.0 | 0.00 | 0.00 | 0.00 | 72 | 986.2 | |
| 20260503000016 | 80 | 0.0 | 0.0 | 0.00 | 0.00 | 0.00 | 72 | 986.2 | |
| 20260502235016 | 81 | 0.0 | 0.0 | 0.00 | 0.00 | 0.00 | 71 | 985.9 | |
| 20260502234016 | 81 | 0.0 | 0.0 | 0.00 | 0.00 | 0.00 | 70 | 985.5 | |
| 20260502233036 | 81 | 0.0 | 0.0 | 0.00 | 0.00 | 0.00 | 70 | 985.5 | |
| 20260502232016 | 82 | 0.0 | 0.0 | 0.00 | 0.00 | 0.00 | 68 | 985.4 | |
| 20260502231016 | 82 | 0.0 | 0.0 | 0.00 | 0.00 | 0.00 | 67 | 985.1 | |
| 20260502230016 | 83 | 0.0 | 0.0 | 0.00 | 0.00 | 0.00 | 66 | 985.1 | |
| 20260502225016 | 83 | 0.0 | 0.0 | 0.00 | 0.00 | 0.00 | 65 | 984.9 | |
| 20260502224016 | 84 | 0.0 | 0.0 | 0.00 | 0.00 | 0.00 | 64 | 984.9 | |
| 20260502223036 | 84 | 0.0 | 0.0 | 0.00 | 0.00 | 0.00 | 64 | 984.9 | |
| 20260502222015 | 85 | 0.0 | 0.0 | 0.00 | 0.00 | 0.00 | 63 | 984.8 | |
| 20260502221035 | 85 | 0.0 | 0.0 | 0.00 | 0.00 | 0.00 | 62 | 984.5 | |
| 20260502220015 | 86 | 0.0 | 0.0 | 0.00 | 0.00 | 0.00 | 61 | 984.5 | |
| 20260502215018 | 86 | 0.0 | 0.0 | 0.00 | 0.00 | 0.00 | 61 | 984.4 | |
| 20260502214017 | 86 | 0.0 | 0.0 | 0.00 | 0.00 | 0.00 | 60 | 984.3 | |
| 20260502213018 | 88 | 0.0 | 0.0 | 0.00 | 0.00 | 0.00 | 56 | 984.3 | |
| 20260502212017 | 87 | 0.0 | 0.0 | 0.00 | 0.00 | 0.00 | 58 | 983.8 | |
| 20260502211017 | 87 | 0.0 | 0.0 | 0.00 | 0.00 | 0.00 | 57 | 983.9 | |
| 20260502210017 | 87 | 0.0 | 0.0 | 0.00 | 0.00 | 0.00 | 59 | 983.9 | |
| 20260502205017 | 87 | 0.0 | 0.0 | 0.00 | 0.00 | 0.00 | 59 | 983.9 | |
| 20260502204017 | 88 | 0.0 | 0.0 | 0.00 | 0.00 | 0.00 | 57 | 983.9 | |
| 20260502203017 | 88 | 0.0 | 0.0 | 0.00 | 0.00 | 0.00 | 57 | 983.9 | |
| 20260502202017 | 89 | 0.0 | 0.0 | 0.00 | 0.00 | 0.00 | 55 | 984.0 | |
| 20260502201017 | 89 | 0.0 | 0.0 | 0.00 | 0.00 | 0.00 | 53 | 984.1 | |
| 20260502200017 | 90 | 0.0 | 0.0 | 0.00 | 0.00 | 0.00 | 54 | 984.1 | |
| 20260502195037 | 90 | 0.0 | 0.0 | 0.00 | 0.00 | 0.00 | 52 | 984.1 | |
| 20260502194057 | 90 | 0.0 | 0.0 | 0.00 | 0.00 | 0.00 | 52 | 984.4 | |
| 20260502193037 | 90 | 0.0 | 0.0 | 0.00 | 0.00 | 0.00 | 52 | 984.4 | |
| 20260502192037 | 89 | 0.0 | 1.0 | 0.00 | 0.00 | 0.00 | 53 | 984.5 | |
| 20260502191017 | 89 | 0.0 | 0.0 | 0.00 | 0.00 | 0.00 | 52 | 984.8 | |
| 20260502190037 | 89 | 0.0 | 0.0 | 0.00 | 0.00 | 0.00 | 54 | 984.8 | |
| 20260502185017 | 89 | 0.0 | 0.0 | 0.00 | 0.00 | 0.00 | 54 | 984.9 | |
| 20260502184017 | 88 | 0.0 | 0.0 | 0.00 | 0.00 | 0.00 | 57 | 985.2 | |
| 20260502183017 | 89 | 0.0 | 0.0 | 0.00 | 0.00 | 0.00 | 53 | 985.2 | |
| 20260502182037 | 89 | 0.0 | 0.0 | 0.00 | 0.00 | 0.00 | 53 | 985.4 | |
| 20260502181017 | 89 | 0.0 | 0.0 | 0.00 | 0.00 | 0.00 | 53 | 985.6 | |
| 20260502164037 | 86 | 0.0 | 0.0 | 0.00 | 0.00 | 0.00 | 59 | 986.9 | |
| 20260502163017 | 87 | 0.0 | 0.0 | 0.00 | 0.00 | 0.00 | 57 | 986.9 | |
| 20260502162016 | 86 | 0.0 | 0.0 | 0.00 | 0.00 | 0.00 | 58 | 987.0 | |
| 20260502161016 | 86 | 0.0 | 0.0 | 0.00 | 0.00 | 0.00 | 60 | 987.1 | |
| 20260502152016 | 85 | 0.0 | 0.0 | 0.00 | 0.00 | 0.00 | 62 | 987.6 | |
| 20260502151016 | 84 | 0.0 | 0.0 | 0.00 | 0.00 | 0.00 | 64 | 987.6 | |
| 20260502123016 | 80 | 0.0 | 0.0 | 0.00 | 0.00 | 0.00 | 72 | 987.3 | |
| 20260502122016 | 79 | 0.0 | 0.0 | 0.00 | 0.00 | 0.00 | 74 | 987.1 | |
| 20260502121015 | 78 | 0.0 | 0.0 | 0.00 | 0.00 | 0.00 | 77 | 987.0 | |
| 20260502115015 | 76 | 0.0 | 0.0 | 0.00 | 0.00 | 0.00 | 80 | 987.0 | |
| 20260502114015 | 76 | 0.0 | 0.0 | 0.00 | 0.00 | 0.00 | 82 | 987.0 | |
| 20260502113038 | 75 | 0.0 | 0.0 | 0.00 | 0.00 | 0.00 | 83 | 987.0 | |
| 20260502112017 | 75 | 0.0 | 0.0 | 0.00 | 0.00 | 0.00 | 85 | 986.8 | |
| 20260502111018 | 74 | 0.0 | 0.0 | 0.00 | 0.00 | 0.00 | 87 | 986.5 | |
| 20260502110017 | 73 | 0.0 | 0.0 | 0.00 | 0.00 | 0.00 | 87 | 986.5 | |
| 20260502105018 | 73 | 0.0 | 0.0 | 0.00 | 0.00 | 0.00 | 88 | 986.4 | |
| 20260502104017 | 73 | 0.0 | 0.0 | 0.00 | 0.00 | 0.00 | 88 | 986.1 | |
| 20260502103017 | 73 | 0.0 | 0.0 | 0.00 | 0.00 | 0.00 | 88 | 986.1 | |
| 20260502102017 | 73 | 0.0 | 0.0 | 0.00 | 0.00 | 0.00 | 88 | 986.2 | |
| 20260502101057 | 73 | 0.0 | 0.0 | 0.00 | 0.00 | 0.00 | 88 | 986.2 | |
| 20260502091017 | 74 | 0.0 | 0.0 | 0.00 | 0.00 | 0.00 | 87 | 985.9 | |
| 20260502071037 | 75 | 0.0 | 0.0 | 0.00 | 0.01 | 0.00 | 84 | 985.4 | |
| 20260502070017 | 75 | 0.0 | 0.0 | 0.00 | 0.01 | 0.00 | 83 | 985.4 | |
| 20260502065017 | 75 | 0.0 | 0.0 | 0.00 | 0.01 | 0.00 | 83 | 985.4 | |
| 20260502064017 | 75 | 0.0 | 0.0 | 0.00 | 0.01 | 0.00 | 82 | 985.5 | |
| 20260502063016 | 75 | 0.0 | 0.0 | 0.00 | 0.01 | 0.00 | 82 | 985.5 | |
| 20260502062017 | 75 | 0.0 | 0.0 | 0.00 | 0.01 | 0.00 | 82 | 985.5 | |
| 20260502061016 | 75 | 0.0 | 0.0 | 0.00 | 0.01 | 0.00 | 81 | 985.6 | |
| 20260502060037 | 75 | 0.0 | 0.0 | 0.00 | 0.01 | 0.00 | 81 | 985.6 | |
| 20260502055016 | 76 | 0.0 | 0.0 | 0.00 | 0.01 | 0.00 | 81 | 985.9 | |
| 20260502054016 | 75 | 0.0 | 0.0 | 0.00 | 0.01 | 0.00 | 81 | 985.9 | |
| 20260502053016 | 75 | 0.0 | 0.0 | 0.00 | 0.01 | 0.00 | 81 | 985.9 | |
| 20260502052016 | 76 | 0.0 | 0.0 | 0.00 | 0.01 | 0.00 | 81 | 986.0 | |
| 20260502051016 | 76 | 0.0 | 0.0 | 0.00 | 0.01 | 0.00 | 81 | 986.1 | |
| 20260502050036 | 76 | 0.0 | 0.0 | 0.00 | 0.01 | 0.00 | 80 | 986.1 | |
| 20260502045016 | 76 | 0.0 | 0.0 | 0.00 | 0.01 | 0.00 | 80 | 986.3 |